HS8AFA Weather Reports


time (UTC)temp
F
wind
direction
speed
knots
gust
knots
rain 1hr
in
rain 24hr
in
rain mn
in
humidity
%
barometer
mb
20260506210016 83 341 1.7 32.2 0.00 0.00 0.00 100 1008.7
20260506205018 83 328 2.6 42.6 0.00 0.00 0.00 100 1008.7
20260506204020 83 343 1.7 28.7 0.00 0.00 0.00 100 1008.7
20260506203019 83 341 2.6 36.5 0.00 0.00 0.00 100 1008.6
20260506202019 83 336 2.6 37.4 0.00 0.00 0.00 100 1008.6
20260506201016 83 340 2.6 39.1 0.00 0.00 0.00 100 1008.7
20260506200038 83 339 1.7 33.0 0.00 0.00 0.00 100 1008.5
20260506195038 83 336 2.6 38.2 0.00 0.00 0.00 100 1008.6
20260506194018 83 329 2.6 36.5 0.00 0.00 0.00 100 1008.7
20260506193039 83 338 1.7 33.0 0.00 0.00 0.00 100 1008.7
20260506192019 83 327 2.6 37.4 0.00 0.00 0.00 100 1008.8
20260506191016 84 340 2.6 38.2 0.00 0.00 0.00 100 1008.9
20260506190017 84 341 1.7 35.6 0.00 0.00 0.00 100 1008.8
20260506185017 84 342 2.6 39.1 0.00 0.00 0.00 100 1008.7
20260506184018 84 342 2.6 37.4 0.00 0.00 0.00 100 1008.7
20260506183019 84 329 2.6 39.1 0.00 0.00 0.00 100 1008.7
20260506182019 84 326 2.6 39.1 0.00 0.00 0.00 100 1008.9
20260506181016 84 343 1.7 35.6 0.00 0.00 0.00 100 1008.9
20260506180016 85 327 1.7 34.8 0.00 0.00 0.00 100 1008.9
20260506175017 85 331 2.6 39.1 0.00 0.00 0.00 100 1009.0
20260506174018 85 337 1.7 36.5 0.00 0.00 0.00 100 1009.1
20260506173019 85 336 1.7 28.7 0.00 0.00 0.00 100 1009.2
20260506172121 85 341 1.7 30.4 0.00 0.00 0.00 100 1009.4
20260506171016 85 342 2.6 37.4 0.00 0.00 0.00 100 1009.5
20260506170036 85 329 2.6 41.7 0.00 0.00 0.00 100 1009.6
20260506165017 85 332 2.6 41.7 0.00 0.00 0.00 100 1009.7
20260506164040 85 342 2.6 36.5 0.00 0.00 0.00 100 1009.7
20260506163039 86 336 2.6 39.1 0.00 0.00 0.00 100 1009.7
20260506162100 86 328 2.6 39.1 0.00 0.00 0.00 100 1009.6
20260506161016 86 345 2.6 37.4 0.00 0.00 0.00 100 1009.7
20260506160016 86 342 2.6 38.2 0.00 0.00 0.00 100 1009.6
20260506155017 86 342 1.7 14.8 0.00 0.00 0.00 100 1009.5
20260506154018 86 341 1.7 31.3 0.00 0.00 0.00 100 1009.5
20260506153020 86 306 2.6 37.4 0.00 0.00 0.00 100 1009.4
20260506152020 86 341 2.6 37.4 0.00 0.00 0.00 100 1009.4
20260506151020 86 339 1.7 34.8 0.00 0.00 0.00 100 1009.3
20260506150016 86 347 2.6 37.4 0.00 0.00 0.00 100 1009.2
20260506145018 86 329 2.6 40.0 0.00 0.00 0.00 100 1009.0
20260506144018 87 342 1.7 35.6 0.00 0.00 0.00 100 1009.0
20260506143020 87 340 1.7 28.7 0.00 0.00 0.00 100 1008.8
20260506142020 87 342 2.6 38.2 0.00 0.00 0.00 100 1008.7
20260506141021 87 345 1.7 36.5 0.00 0.00 0.00 100 1008.6
20260506140016 87 350 1.7 35.6 0.00 0.00 0.00 100 1008.5
20260506135017 87 331 1.7 32.2 0.00 0.00 0.00 100 1008.4
20260506134038 87 29 1.7 33.0 0.00 0.00 0.00 100 1008.2
20260506133039 87 360 1.7 28.7 0.00 0.00 0.00 100 1008.0
20260506132039 87 351 2.6 38.2 0.00 0.00 0.00 100 1007.9
20260506131100 87 342 2.6 40.0 0.00 0.00 0.00 100 1007.8
20260506130016 88 347 2.6 36.5 0.00 0.00 0.00 100 1007.7
20260506125017 88 336 2.6 37.4 0.00 0.00 0.00 100 1007.7
20260506124017 87 334 2.6 37.4 0.00 0.00 0.00 100 1007.6
20260506123018 87 287 2.6 36.5 0.00 0.00 0.00 100 1007.5
20260506122020 88 270 2.6 36.5 0.00 0.00 0.00 100 1007.4
20260506121021 88 279 1.7 35.6 0.00 0.00 0.00 100 1007.3
20260506120016 88 271 2.6 38.2 0.00 0.00 0.00 100 1007.2
20260506115017 89 261 2.6 37.4 0.00 0.00 0.00 100 1007.2
20260506114017 89 253 2.6 40.0 0.00 0.00 0.00 100 1007.2
20260506113019 89 265 1.7 15.6 0.00 0.00 0.00 100 1007.2
20260506112020 89 325 2.6 37.4 0.00 0.00 0.00 100 1007.3
20260506111020 89 341 2.6 37.4 0.00 0.00 0.00 100 1007.2
20260506110015 90 323 2.6 36.5 0.00 0.00 0.00 100 1007.3
20260506105017 90 346 2.6 39.1 0.00 0.00 0.00 100 1007.4
20260506104039 91 343 1.7 33.9 0.00 0.00 0.00 100 1007.5
20260506103018 91 341 1.7 35.6 0.00 0.00 0.00 100 1007.6
20260506102019 91 348 2.6 36.5 0.00 0.00 0.00 100 1007.5
20260506101041 91 346 2.6 36.5 0.00 0.00 0.00 100 1007.4
20260506100016 91 337 2.6 36.5 0.00 0.00 0.00 100 1007.2
20260506095016 91 316 2.6 36.5 0.00 0.00 0.00 100 1007.4
20260506094017 90 309 2.6 39.1 0.00 0.00 0.00 100 1007.4
20260506093038 90 286 2.6 36.5 0.00 0.00 0.00 100 1007.3
20260506092019 90 308 1.7 35.6 0.00 0.00 0.00 100 1007.2
20260506091021 90 350 2.6 36.5 0.00 0.00 0.00 100 1007.1
20260506090037 91 340 1.7 36.5 0.00 0.00 0.00 100 1007.0
20260506085016 91 347 2.6 38.2 0.00 0.00 0.00 100 1007.1
20260506084018 91 321 2.6 39.1 0.00 0.00 0.00 100 1007.1
20260506083019 91 318 1.7 27.8 0.00 0.00 0.00 100 1007.3
20260506082039 91 308 2.6 37.4 0.00 0.00 0.00 100 1007.3
20260506081020 91 312 2.6 37.4 0.00 0.00 0.00 100 1007.4
20260506073018 94 332 2.6 37.4 0.00 0.00 0.00 100 1007.8
20260506072040 94 333 1.7 31.3 0.00 0.00 0.00 100 1007.7
20260506071019 94 337 1.7 34.8 0.00 0.00 0.00 100 1007.9
20260506062019 95 323 2.6 39.1 0.00 0.00 0.00 100 1008.7
20260506061019 95 289 2.6 36.5 0.00 0.00 0.00 100 1008.8
20260506051020 93 324 2.6 38.2 0.00 0.00 0.00 100 1010.1
20260506045016 92 338 2.6 37.4 0.00 0.00 0.00 100 1010.4
20260506044017 93 324 2.6 38.2 0.00 0.00 0.00 100 1010.4
20260506043018 92 310 1.7 35.6 0.00 0.00 0.00 100 1010.5
20260506042019 92 339 2.6 37.4 0.00 0.00 0.00 100 1010.4
20260506041019 91 343 1.7 35.6 0.00 0.00 0.00 100 1010.4
20260506040020 91 335 1.7 33.9 0.00 0.00 0.00 100 1010.4
20260506035016 91 344 1.7 35.6 0.00 0.00 0.00 100 1010.5
20260506034017 91 329 2.6 37.4 0.00 0.00 0.00 100 1010.6
20260506033018 90 341 2.6 37.4 0.00 0.00 0.00 100 1010.6
20260506032019 90 306 1.7 34.8 0.00 0.00 0.00 100 1010.6
20260506031019 89 337 2.6 37.4 0.00 0.00 0.00 100 1010.7
20260506025016 88 304 2.6 36.5 0.00 0.00 0.00 100 1010.7
20260506024037 88 294 2.6 40.0 0.00 0.00 0.00 100 1010.7
20260506023017 88 320 1.7 27.8 0.00 0.00 0.00 100 1010.7
20260506022019 88 271 1.7 34.8 0.00 0.00 0.00 100 1010.7
20260506021019 87 341 1.7 36.5 0.00 0.00 0.00 100 1010.6
20260506020041 87 295 2.6 37.4 0.00 0.00 0.00 100 1010.5
20260506015016 86 316 2.6 38.2 0.00 0.00 0.00 100 1010.4
20260506014016 86 293 1.7 36.5 0.00 0.00 0.00 100 1010.3
20260506013017 86 312 2.6 38.2 0.00 0.00 0.00 100 1010.3
20260506012018 85 328 2.6 38.2 0.00 0.00 0.00 100 1010.2
20260506011019 85 272 2.6 39.1 0.00 0.00 0.00 100 1010.1
20260506010041 85 299 1.7 13.9 0.00 0.00 0.00 100 1010.2
20260506005021 85 295 2.6 36.5 0.00 0.00 0.00 100 1010.2
20260506004017 85 282 1.7 36.5 0.00 0.00 0.00 100 1010.1
20260506003018 84 276 1.7 35.6 0.00 0.00 0.00 100 1009.9
20260506002018 84 258 1.7 35.6 0.00 0.00 0.00 100 1009.8
20260506001018 84 249 2.6 38.2 0.00 0.00 0.00 100 1009.7
20260506000020 84 260 2.6 36.5 0.00 0.00 0.00 100 1009.7
20260505235015 84 261 1.7 36.5 0.00 0.00 0.00 100 1009.7
20260505234016 83 261 1.7 36.5 0.00 0.00 0.00 100 1009.6
20260505233017 83 287 1.7 27.8 0.00 0.00 0.00 100 1009.7
20260505232018 83 293 2.6 37.4 0.00 0.00 0.00 100 1009.6
20260505231020 83 293 2.6 39.1 0.00 0.00 0.00 100 1009.5
20260505230020 84 267 2.6 37.4 0.00 0.00 0.00 100 1009.5
20260505225021 84 288 1.7 36.5 0.00 0.00 0.00 100 1009.4
20260505224016 84 275 1.7 34.8 0.00 0.00 0.00 100 1009.3
20260505223037 84 265 2.6 38.2 0.00 0.00 0.00 100 1009.2
20260505222018 84 260 2.6 38.2 0.00 0.00 0.00 100 1009.1
20260505221019 84 269 2.6 38.2 0.00 0.00 0.00 100 1009.0
20260505220020 84 269 2.6 38.2 0.00 0.00 0.00 100 1009.1
20260505215020 84 293 2.6 36.5 0.00 0.00 0.00 100 1009.2
20260505214017 84 263 2.6 37.4 0.00 0.00 0.00 100 1009.4
20260505213017 84 308 1.7 35.6 0.00 0.00 0.00 100 1009.3
20260505212038 84 271 1.7 34.8 0.00 0.00 0.00 100 1009.0
20260505211018 84 301 1.7 35.6 0.00 0.00 0.00 100 1009.1